Regional Weather Roundup
Issued by NWS

Home | Current Version | Previous Version | Graphics & Text | Print | Product List | Glossary On
Versions: 1 2 3 4 5 6 7 8 9 10 11 12 13 14 15 16 17 18 19 20 21 22 23 24 25 26 27 28 29 30 31 32 33 34 35 36 37 38 39 40 41 42 43 44 45 46 47 48 49 50
000
ASUS43 KLMK 010510
RWRKY
KENTUCKY REGIONAL WEATHER ROUNDUP
NATIONAL WEATHER SERVICE LOUISVILLE KY
100 AM EDT SAT OCT 01 2016

NOTE "FAIR" INDICATES FEW OR NO CLOUDS BELOW 12,000 FEET
WITH NO SIGNIFICANT WEATHER AND/OR OBSTRUCTIONS TO VISIBILITY.

KYZ001>023-026-027-061>063-070>075-010600-
WESTERN AND SOUTH CENTRAL KENTUCKY

CITY           SKY/WX    TMP DP  RH WIND       PRES   REMARKS
PADUCAH        CLOUDY    62  60  93 SW7       30.01F
HENDERSON      CLOUDY    59  55  88 CALM      29.99S
OWENSBORO      NOT AVBL
HOPKINSVILLE   CLOUDY    60  59  99 S5        30.01F
BOWLING GREEN  CLOUDY    58  56  93 S5        30.03S
GLASGOW        CLOUDY    57  57 100 CALM      30.03S
$$

KYZ024-025-028>034-038-045-046-053-010600-
NORTH CENTRAL KENTUCKY

CITY           SKY/WX    TMP DP  RH WIND       PRES   REMARKS
LOUISVILLE/SDF CLOUDY    56  54  93 S5        30.02R
LOUISVILLE/LOU MOCLDY    55  53  93 CALM      30.02S
FORT KNOX      FOG       52  52  99 E2        30.00S VSB 1/2
$$

KYZ035>037-039>044-047>052-055>060-089>105-010600-
NORTHEAST KENTUCKY

CITY           SKY/WX    TMP DP  RH WIND       PRES   REMARKS
LEXINGTON      MOCLDY    57  53  86 S6        30.03F
COVINGTON      CLOUDY    57  54  89 S3        30.03S
FRANKFORT      CLOUDY    57  53  86 CALM      30.02S
$$

KYZ054-064>069-076>088-106>120-010600-
SOUTHEAST KENTUCKY

CITY           SKY/WX    TMP DP  RH WIND       PRES   REMARKS
JACKSON        CLEAR     53  49  86 CALM      30.06F
LONDON         CLEAR     51  48  89 CALM      30.06S
SOMERSET       CLEAR     52  52 100 CALM      30.07R
MIDDLESBORO    PTCLDY    49  49 100 CALM      30.09S
MONTICELLO     MOCLDY    53  52  96 NE8       30.07S
$$





USA.gov is the U.S. government's official web portal to all federal, state and local government web resources and services.